Location: Strawberry
(45.6646°N, 111.9596°W)
Time: 14:31:05
(UTC+00:00)

Tiangong - Pass Details

Date: 21 August 2022
Orbit: 377 x 382 km, 41.5° (Epoch: 27 September)

Event Time Altitude Azimuth Distance (km) Brightness Sun altitude
Rises 03:08:03 0° 252° (WSW) 2,238 2.5 -7.5°
Reaches altitude 10° 03:10:12 10° 243° (WSW) 1,385 1.2 -7.8°
Maximum altitude 03:13:06 36° 175° (S) 619 -1.4 -8.3°
Enters shadow 03:15:40 12° 109° (ESE) 1,253 -0.2 -8.7°
